AirNav   ATP
 
 873 users online  

N81 Hammonton Municipal Airport
Hammonton, New Jersey, USA

GOING TO HAMMONTON?


FAA INFORMATION EFFECTIVE 16 AUGUST 2018

Location

FAA Identifier: N81
Lat/Long: 39-40-02.9000N / 074-45-27.8000W
39-40.048333N / 074-45.463333W
39.6674722 / -74.7577222
(estimated)
Elevation: 64.6 ft. / 19.7 m (surveyed)
Variation: 13W (2000)
From city: 3 miles NE of HAMMONTON, NJ
Time zone: UTC -4 (UTC -5 during Standard Time)
Zip code: 08037

Airport Operations

Airport use: Open to the public
Activation date: 12/1969
Control tower: no
ARTCC: WASHINGTON CENTER
FSS: MILLVILLE FLIGHT SERVICE STATION
NOTAMs facility: MIV (NOTAM-D service available)
Attendance: 0800-DUSK
Wind indicator: lighted
Segmented circle: no
Lights: ACTVT REIL RWY 03 & 21; MIRL RWY 03/21 - 123.5. VGSI CONS.
Beacon: white-green (lighted land airport)
Operates sunset to sunrise.

Airport Communications

CTAF/UNICOM: 122.7
WX AWOS-AV: 122.7
ATLANTIC CITY APPROACH: 134.25
ATLANTIC CITY DEPARTURE: 134.25
WX ASOS at VAY (17 nm N): 119.325 (609-267-1176)
  • GCO 121.725

Nearby radio navigation aids

VOR radial/distance  VOR name  Freq  Var
VCNr061/12.4CEDAR LAKE VOR/DME115.2010W
ACYr337/15.2ATLANTIC CITY VORTAC108.6010W
CYNr249/17.5COYLE VORTAC113.4010W
GXUr212/21.8MC GUIRE VORTAC110.6012W
OODr096/25.3WOODSTOWN VORTAC112.8010W
PNEr165/(27.4)NORTH PHILADELPHIA VOR112.0010W
RBVr211/34.3ROBBINSVILLE VORTAC113.8010W
SIEr012/34.4SEA ISLE VORTAC114.8009W
ARDr179/35.8YARDLEY VOR/DME108.2010W
DQOr101/39.2DUPONT VORTAC114.0010W

 
NDB name  Hdg/Dist  Freq  Var  ID
RAINBOW060/23.036311WRNB .-. -. -...
LAKEHURST232/29.839611WNEL -. . .-..
AMBLER151/36.727512WING .. -. --.

Airport Services

Fuel available: 100LL JET-A
Parking: hangars and tiedowns
Airframe service: MAJOR
Powerplant service: MAJOR
Bottled oxygen: NONE
Bulk oxygen: NONE

Runway Information

Runway 3/21

Dimensions: 3601 x 75 ft. / 1098 x 23 m
Surface: asphalt, in good condition
Weight bearing capacity: 
Single wheel: 12.0
Runway edge lights: medium intensity
RUNWAY 3  RUNWAY 21
Latitude: 39-39.763368N39-40.333083N
Longitude: 074-45.570430W074-45.357193W
Elevation: 64.1 ft.57.5 ft.
Gradient: 0.2%0.2%
Traffic pattern: leftleft
Runway heading: 029 magnetic, 016 true209 magnetic, 196 true
Markings: nonprecision, in good conditionnonprecision, in good condition
Visual slope indicator: 2-light PAPI on left (3.50 degrees glide path)2-light PAPI on left (3.25 degrees glide path)
Runway end identifier lights: yesyes
Touchdown point: yes, no lightsyes, no lights
Obstructions: 61 ft. trees, 725 ft. from runway, 270 ft. right of centerline, 8:1 slope to clear
+30 FT TREES 190-240 FT L 70-170 FT FROM THLD.
40 ft. trees, 210 ft. from runway, 150 ft. right of centerline
+50 FT TREES 150 FT R 0-200 FT FROM THLD.

Airport Ownership and Management from official FAA records

Ownership: Publicly-owned
Owner: TOWN OF HAMMONTON
TOWN HALL, 100 CENTRAL AVENUE
HAMMONTON, NJ 08037
Phone (609) 567-4300
Manager: JERRY BARBERIO
TOWN HALL, 100 CENTRAL AVENUE
HAMMONTON, NJ 08037
Phone (609) 567-4300

Airport Operational Statistics

Aircraft based on the field: 23
Single engine airplanes: 21
Multi engine airplanes: 1
Helicopters: 1
    
Aircraft operations: avg 52/day *
54% local general aviation
46% transient general aviation
* for 12-month period ending 31 March 2018

Additional Remarks

DEER IN VICINITY OF ARPT.
ON ARPT MAINTENANCE CTC (609) 774-3635.
RWY 03; PARALLEL DITCH FIRST 500 FT OF RWY R SIDE WITHIN 100 FT OF CTLN.

Instrument Procedures

NOTE: All procedures below are presented as PDF files. If you need a reader for these files, you should download the free Adobe Reader.

NOT FOR NAVIGATION. Please procure official charts for flight.
FAA instrument procedures published for use from 16 August 2018 at 0901Z to 13 September 2018 at 0900Z.

 
IAPs - Instrument Approach Procedures
RNAV (GPS) RWY 03   download (176KB)
VOR-B   download (162KB)
NOTE: Special Take-Off Minimums/Departure Procedures apply   download (150KB)

Other nearby airports with instrument procedures:

19N - Camden County Airport (11 nm NW)
17N - Cross Keys Airport (13 nm W)
N73 - Red Lion Airport (14 nm N)
KACY - Atlantic City International Airport (15 nm SE)
29N - Kroelinger Airport (16 nm SW)
N14 - Flying W Airport (16 nm N)
KVAY - South Jersey Regional Airport (17 nm N)
 
Loc | Ops | Rwys | IFR | FBO | Links
Com | Nav | Svcs | Stats | Notes


 
Area around N81 (Hammonton Municipal Airport)
 
Road maps at: MapQuest Bing Google
 
Aerial photo
WARNING: Photo may not be current or correct
Aerial photo of N81 (Hammonton Municipal Airport)
Photo courtesy of AirNav, LLC
Photo taken 01-Mar-2014
looking north-northeast.

Do you have a better or more recent aerial photo of Hammonton Municipal Airport that you would like to share? If so, please send us your photo.

 
Sectional chart

 
Airport distance calculator
Flying to Hammonton Municipal Airport? Find the distance to fly.

From to N81

Sunrise and sunset
Times for 18-Aug-2018
 Local
(UTC-4)
 Zulu
(UTC)
Morning civil twilight05:4609:46
Sunrise06:1510:15
Sunset19:5123:51
Evening civil twilight20:1900:19

Current date and time
Zulu (UTC)  19-Aug-2018 03:01:24
Local (UTC-4)  18-Aug-2018 23:01:24
 
METAR
KACY 
14nm SE 
190254Z 35004KT 10SM SCT055 24/23 A2984 RMK AO2 RAE07 SLP103 P0000 60000 T02440228 51007
KVAY 
16nm N 
ASOS 119.325 609-267-1176
190254Z AUTO 03003KT 10SM FEW032 SCT048 24/23 A2984 RMK AO2 SLP103 T02390233 51009 $
KWRI 
22nm N 
190156Z 00000KT 10SM BKN085 BKN150 24/22 A2982 RMK AO2A SLP097 T02350224 $
KMIV 
24nm SW 
190254Z AUTO 27005KT 10SM BKN048 OVC060 25/23 A2984 RMK AO2 LTG DSNT NW SLP100 60000 T02500233 51006
KPHL 
25nm NW 
190254Z 04003KT 10SM SCT130 BKN220 24/22 A2984 RMK AO2 LTG DSNT SW SLP103 60000 T02440217 50005 $
KMJX 
27nm NE 
AWOS-3 119.875 732-244-4450
190256Z AUTO 00000KT 10SM CLR 23/22 A2985 RMK AO2 SLP111 60000 T02280222 51008
KPNE 
28nm NW 
190254Z AUTO 04006KT 10SM CLR 24/22 A2986 RMK AO2 RAE05 SLP109 P0000 60001 T02440217 51009
KNEL 
29nm NE 
190200Z AUTO SCT035 BKN043 BKN085 RMK AO2 SLPNO TSNO $
TAF
KACY 
14nm SE 
190101Z 1901/1924 26007KT P6SM VCTS SCT050CB BKN090 FM190300 33008KT P6SM VCSH OVC050 FM191000 36005KT 6SM BR OVC030 FM191200 36006KT P6SM BKN020 FM191300 02009KT P6SM BKN012 FM191800 04010KT P6SM OVC015
NOTAMs
Click for the latest NOTAMs
NOTAMs are issued by the DoD/FAA and will open in a separate window not controlled by AirNav.

 

 
 

FBO, Fuel Providers, and Aircraft Ground Support

  
 Business Name 
 
 Contact 
 
 Services / Description 
 
Fuel Prices
 
Comments
  
Star Aero Avionics LLC 609-567-5300
no information available

If you are affiliated with Star Aero Avionics LLC and would like to show here your services, contact info, web link, logo, and more, click here
100LL Jet A
FS $5.50 $5.80 
 Updated 05-Mar-2018
 
   write
FS=Full service
Update Fuel Prices
 

Would you like to see your business listed on this page?

 If your business provides an interesting product or service to pilots, flight crews, aircraft, or users of the Hammonton Municipal Airport, you should consider listing it here.  To start the listing process, click on the button below
 
Add a business
 

Other Pages about Hammonton Municipal Airport

Update a link
 
Copyright © AirNav, LLC. All rights reserved. Privacy Policy  Contact